Regional Weather Roundup
Issued by NWS

Home | Current Version | Previous Version | Graphics & Text | Print | Product List | Glossary On
Versions: 1 2 3 4 5 6 7 8 9 10 11 12 13 14 15 16 17 18 19 20 21 22 23 24 25 26 27 28 29 30 31 32 33 34 35 36 37 38 39 40 41 42 43 44 45 46 47 48 49 50
000
ASUS43 KMPX 300010
RWRMN
WEATHER ROUNDUP FOR MINNESOTA
NATIONAL WEATHER SERVICE TWIN CITIES/CHANHASSEN MN
600 PM CST THU JAN 29 2015


NOTE: "FAIR" INDICATES FEW OR NO CLOUDS BELOW 12,000 FEET WITH NO
SIGNIFICANT WEATHER AND/OR OBSTRUCTIONS TO VISIBILITY. N/A MEANS
CURRENT SKY AND/OR WEATHER CONDITIONS ARE NOT AVAILABLE.

MNZ060>063-068>070-300100-
   Twin Cities Metro

CITY           SKY/WX    TMP DP  RH WIND       PRES   REMARKS
TWIN CITIES    PTCLDY    24  12  60 NW18G25   30.40R WCI  10
6HR MIN TEMP:  24; 6HR MAX TEMP:  32;

ST PAUL        PTCLDY    24  13  62 NW17      30.41R WCI  11
CRYSTAL        PTCLDY    24  12  60 NW16      30.40R WCI  11
BLAINE         PTCLDY    25  12  58 NW16      30.40R WCI  12
LAKEVILLE      MOCLDY    23  16  74 NW17G24   30.39R WCI   9
EDEN PRAIRIE   MOCLDY    24  12  60 NW15      30.40R WCI  11
6HR MIN TEMP:  24; 6HR MAX TEMP:  31;

SOUTH ST PAUL  PTCLDY    26  13  58 NW14G24   30.39R WCI  14
LAKE ELMO      FAIR      25  14  63 NW13G20   30.39R WCI  13
$$
MNZ001>005-007-008-013>017-022>024-027-028-300100-
   Northwest Minnesota

CITY           SKY/WX    TMP DP  RH WIND       PRES   REMARKS
BEMIDJI        CLOUDY     7   1  78 NW13      30.45R WCI  -9
HALLOCK        CLEAR      3  -2  78 N8        30.56S WCI -10
ROSEAU         CLEAR      5  -2  72 NW10      30.52R WCI -10
WARROAD        CLEAR      3  -2  78 NW8       30.50S WCI -10
THIEF RVR FALL CLEAR      3   1  92 NW8       30.53R WCI -10
CROOKSTON      CLEAR      7   1  78 N12       30.57R WCI  -9
FOSSTON        PTCLDY     3   0  85 NW10      30.51R WCI -12
DETROIT LAKES  FLURRIES  10   7  85 N14       30.50R WCI  -5
MOORHEAD       CLEAR     12   9  85 N8        30.56R WCI   1
PARK RAPIDS    CLEAR     11   4  73 NW12      30.44R WCI  -3
MAHNOMEN       FAIR       7   1  79 NW14      30.51R WCI -10
$$
MNZ006-009>011-018-025>026-300100-
   North Central Minnesota

CITY           SKY/WX    TMP DP  RH WIND       PRES   REMARKS
BAUDETTE       CLEAR      4  -3  73 NW9       30.46R WCI -10
FLAG ISLAND    CLEAR      3  -2  78 NW12      30.48R WCI -13
INTL FALLS     CLOUDY     7  -2  66 NW14      30.43R WCI -10
6HR MIN TEMP:   7; 6HR MAX TEMP:  11; 6HR PCP: TRACE;

WASKISH        CLEAR      7   1  78 CALM      30.48R
BIG FORK       MOCLDY     9   0  66 NW6       30.44R WCI  -1
LONGVILLE      CLEAR     10   3  72 NW7       30.44R WCI   0
GRAND RAPIDS   PTCLDY    10   1  67 NW15G21   30.39R WCI  -6
CRANE LAKE     CLOUDY     9   3  78 NW5       30.42R WCI   0
ORR            CLOUDY     9   1  72 NW14      30.38R WCI  -8
COOK           CLOUDY     9   3  78 NW7       30.40R WCI  -3
WALKER         FAIR       9   3  77 NW8       30.45R WCI  -4
$$
MNZ012-019>021-037-300100-
   Northeast Minnesota

CITY           SKY/WX    TMP DP  RH WIND       PRES   REMARKS
DULUTH         MOCLDY    12   2  64 NW12      30.34R WCI  -2
6HR MIN TEMP:  12; 6HR MAX TEMP:  22; 6HR PCP: TRACE;

ELY            MOCLDY    10   1  67 NW7G21    30.34R WCI   0
HIBBING        PTCLDY    10   0  63 N18       30.39R WCI  -8
EVELETH        MOCLDY    12   5  73 NW10G17   30.39R WCI  -1
DULUTH HARBOR  CLEAR     18   7  62 NW16      30.42R WCI   3
TWO HARBORS    CLOUDY    16   9  73 NW8       30.33R WCI   5
SILVER BAY     MOCLDY    16   5  62 NW7       30.32R WCI   6
GRAND MARAIS     N/A     14   3  61 NW10      30.34R WCI   1
G MARAIS ARPRT CLOUDY     7  -2  66 NW13G26   30.22R WCI  -9
$$
MNZ029>031-032-039>041-046>048-054>057-064-300100-
   West Central Minnesota

CITY           SKY/WX    TMP DP  RH WIND       PRES   REMARKS
FERGUS FALLS   PTCLDY    12   5  73 N8G16     30.55R WCI   1
WHEATON        MIX PCPN  16  10  79 N12       30.54R WCI   3
MORRIS         CLOUDY    16  10  79 N16       30.50R WCI   0
ALEXANDRIA     PTCLDY    13   6  74 NW9       30.47R WCI   1
ELBOW LAKE     FLURRIES  13   8  79 N15       30.50R WCI  -3
WADENA         PTCLDY    10   5  79 NW12      30.46R WCI  -4
GLENWOOD       CLEAR     14   9  79 NW15G22   30.47R WCI  -1
APPLETON       CLOUDY    19  12  73 N17       30.52R WCI   4
BENSON         PTCLDY    16   9  73 N16G23    30.51R WCI   0
ORTONVILLE     FLURRIES  19  12  73 N14       30.51R WCI   6
MADISON        CLOUDY    25  18  74 N13       30.52R WCI  13
WILLMAR        FAIR      18  10  73 NW18      30.49R WCI   2
$$
MNZ033>034-036-042>043-049>051-058-059-300100-
   Central Minnesota

CITY           SKY/WX    TMP DP  RH WIND       PRES   REMARKS
ST CLOUD       CLEAR     19   7  59 NW9G20    30.43R WCI   8
6HR MIN TEMP:  19; 6HR MAX TEMP:  26;

SAUK CENTRE    FAIR      15   8  72 NW16      30.47R WCI  -1
PAYNESVILLE    CLEAR     15   9  78 W13G18    30.47R WCI   1
AITKIN         CLEAR     16   7  67 NW6       30.41R WCI   7
PINE RIVER     CLEAR     12   5  73 NW14      30.46R WCI  -3
BRAINERD       CLEAR     15   5  64 NW10      30.43R WCI   2
STAPLES        CLEAR     12   7  79 NW8       30.45R WCI   1
LONG PRAIRIE   FAIR      14   9  79 W14       30.45R WCI  -1
LITTLE FALLS   CLEAR     19   7  58 NW6G16    30.45R WCI  11
LITCHFIELD     FAIR      19  12  73 NW14G21   30.46R WCI   6
BUFFALO        PTCLDY    22  12  66 NW9       30.45R WCI  12
MAPLE LAKE     CLEAR     22  13  69 NW10      30.44R WCI  11
$$
MNZ037-044-045-052-053-300100-
   East Central Minnesota

CITY           SKY/WX    TMP DP  RH WIND       PRES   REMARKS
PRINCETON      MOCLDY    21   9  58 NW12      30.42R WCI   9
MORA           PTCLDY    16   7  67 N13G25    30.43R WCI   2
CAMBRIDGE      CLEAR     19   9  63 NW12G20   30.42R WCI   7
RUSH CITY      CLOUDY    18  10  70 N10G16    30.42R WCI   6
MOOSE LAKE     CLEAR     16   7  67 NW9       30.38R WCI   4
HINCKLEY       FAIR      18  10  73 CALM      30.41R
CLOQUET        CLEAR     12   1  62 NW14G21   30.37R WCI  -3
MCGREGOR       CLEAR     14   7  73 NW10      30.41R WCI   1
$$
MNZ071>073-080-081-089-090-097-098-300100-
   Southwest Minnesota

CITY           SKY/WX    TMP DP  RH WIND       PRES   REMARKS
MONTEVIDEO     PTCLDY    18  12  79 N13G20    30.52R WCI   4
GRANITE FALLS  CLEAR     18  13  79 NW10G17   30.52R WCI   7
CANBY          CLOUDY    22  17  78 N12       30.51R WCI  11
MARSHALL       CLOUDY    21  12  68 N20       30.50R WCI   6
REDWOOD FALLS  CLEAR     20  12  71 NW16G29   30.48R WCI   6
OLIVIA         CLEAR     19  14  79 NW18      30.48R WCI   4
PIPESTONE      CLOUDY    25  19  80 N10G17    30.44S WCI  15
WINDOM         PTCLDY    21  18  86 NW21      30.45R WCI   6
WORTHINGTON    CLOUDY    23  18  80 N16       30.45R WCI  10
JACKSON        MOCLDY    25  18  74 NW17G30   30.44R WCI  11
TRACY          MOCLDY    22  17  81 NW15G23   30.48R WCI   9
SLAYTON        CLOUDY    23  18  80 NW16G22   30.45R WCI   9
$$
MNZ065>067-074>077-082>085-091>093-300100-
   South Central Minnesota

CITY           SKY/WX    TMP DP  RH WIND       PRES   REMARKS
MANKATO        PTCLDY    23  14  68 NW16G28   30.42R WCI  10
NEW ULM        CLEAR     19  12  73 NW22      30.46R WCI   3
ST JAMES       PTCLDY    23  18  80 NW20G25   30.46R WCI   8
FAIRMONT       CLEAR     23  12  63 NW20G26   30.42R WCI   8
GLENCOE        CLEAR     23  17  76 NW16G25   30.44R WCI  10
FARIBAULT      CLOUDY    25  18  74 NW13G18   30.39R WCI  13
OWATONNA       CLOUDY    25  18  74 NW18      30.38R WCI  11
WASECA         PTCLDY    25  18  74 NW16      30.41R WCI  12
ALBERT LEA     MOCLDY    25  18  74 NW12G17   30.37R WCI  14
$$
MNZ078>079-086>088-094>096-300100-
   Southeast Minnesota

CITY           SKY/WX    TMP DP  RH WIND       PRES   REMARKS
ROCHESTER      CLOUDY    24  16  71 NW22      30.33R WCI   9
6HR MIN TEMP:  24; 6HR MAX TEMP:  31;

RED WING       MOCLDY    27  14  59 NW13G23   30.36R WCI  16
STANTON        CLOUDY    27  16  63 NW18      30.37R WCI  13
DODGE CENTER   CLOUDY    25  18  74 NW17G23   30.35R WCI  11
WINONA         CLOUDY    30  19  64 NW16G26   30.33R WCI  19
AUSTIN         MOCLDY    23  18  80 NW17G26   30.36R WCI   9
PRESTON        MOCLDY    25  17  72 NW18G30   30.31R WCI  11
$$
ABBREVIATIONS USED IN REMARKS
   TC - TEMPERATURES IN CELSIUS
  WCI - WIND CHILL INDEX
   HX - HEAT INDEX
  VSB - VISIBILITY
$$


USA.gov is the U.S. government's official web portal to all federal, state and local government web resources and services.